Regional Weather Roundup
Issued by NWS

Home | Current Version | Previous Version | Graphics & Text | Print | Product List | Glossary On
Versions: 1 2 3 4 5 6 7 8 9 10 11 12 13 14 15 16 17 18 19 20 21 22 23 24 25 26 27
000
ASUS45 KCYS 292110
RWRWY

WYOMING REGIONAL WEATHER ROUNDUP
NATIONAL WEATHER SERVICE CHEYENNE WY
300 PM MDT WED MAR 29 2017

NOTE:  "FAIR" INDICATES FEW OR NO CLOUDS BELOW 12,000 FEET
WITH NO SIGNIFICANT WEATHER AND/OR OBSTRUCTIONS TO VISIBILITY.

WYZ001-292200-
YELLOWSTONE NATIONAL PARK

CITY           SKY/WX    TMP DP  RH WIND       PRES   REMARKS
LK YELLOWSTONE   N/A     37  24  59 VRB6      30.12F WCI  32
W YELLOWSTONE  NOT AVBL

$$
WYZ002>013-054>058-071-098>099-292200-
NORTHERN WYOMING

CITY           SKY/WX    TMP DP  RH WIND       PRES   REMARKS
JACKSON        PTSUNNY   48  25  40 SW13      30.10
CODY           FAIR      60  24  25 W12G22    29.96F
GREYBULL       FAIR      58  26  29 MISG      29.96F
WORLAND        FAIR      57  31  37 SE7       29.97F
SHERIDAN       FAIR      57  31  37 E5        29.96F
BUFFALO        FAIR      56  24  29 SE9       29.97F
GILLETTE       FAIR      58  26  29 N3        29.98F
HULETT         MOCLDY    55  30  38 CALM      29.99F
NEWCASTLE      FAIR      55  28  35 W10G17    30.00F

$$
WYZ014>020-022>026-101>103-292200-
CENTRAL WYOMING

CITY           SKY/WX    TMP DP  RH WIND       PRES   REMARKS
BIG PINEY      FAIR      50  22  33 W3        30.10F
PINEDALE       FAIR      46  21  36 N13G18    30.12F
DUBOIS         CLOUDY    50  19  29 NW20G30   30.03F
LANDER         FAIR      55  28  35 VRB3      29.99F
RIVERTON       FAIR      54  27  35 SW6       30.01F
CASPER         FAIR      55  27  34 W14G20    30.00F
DOUGLAS        FAIR      58  26  29 NW14G22   30.00F

$$
WYZ021-027>030-104>119-292200-
SOUTHERN WYOMING

CITY           SKY/WX    TMP DP  RH WIND       PRES   REMARKS
EVANSTON       FAIR      49  26  41 W13       30.16F
KEMMERER         N/A     43  28  56 NW12G17   30.16F
FORT BRIDGER   FAIR      53  26  36 W14G23    30.17F
ROCK SPRINGS   FAIR      48  28  46 W15       30.11F
DIXON            N/A     51  22  32 SW8       30.13F
RAWLINS        FAIR      52  23  32 W21G26    30.07F
SARATOGA       FAIR      48  23  37 W9G20     30.09F
LARAMIE        FAIR      48  25  40 N14G25    30.03F
CHEYENNE       FAIR      51  24  34 NW16G29   30.00F
TORRINGTON     FAIR      55  30  38 N10       29.97F
PINE BLUFFS    MOCLDY    54  32  43 N21G26    29.99F

$$




USA.gov is the U.S. government's official web portal to all federal, state and local government web resources and services.